User: anonymous   Login
Location: Raven Hill Discovery Center
(45.1336°N, 85.0553°W)
Time: 18:27:45
(UTC-04:00)
Language:

Cosmos 1470 - Orbit

View from above orbital plane
View from above orbital plane
View from above satellite
View from above satellite

Ground track
Ground track

The orbit data is extracted from the following two-line orbital elements,

1 14147U 83061A   15184.84995934  .00000818  00000-0  49589-4 0  9991
2 14147 082.4932 019.8202 0012268 184.9062 175.2049 15.09163093497014
Epoch (UTC): 03 July 2015 20:23:56
Eccentricity: 0.0012268
inclination: 82.4932°
perigee height: 530 km
apogee height: 547 km
right ascension of ascending node: 19.8202°
argument of perigee: 184.9062°
revolutions per day: 15.09163093
mean anomaly at epoch: 175.2049°
orbit number at epoch: 49701

The dashed part of the orbit path shows where the satellite is in the earth's shadow,  

DLR